SR5NLK-1 Weather Reports


time (UTC)temp
C
wind
direction
speed
KPH
gust
KPH
rain 1hr
cm
rain 24hr
cm
rain mn
cm
humidity
%
barometer
mb
20260905102436 21 270 43.5 43.5 0.00 0.20 0.00 50 1061.1
20260905101437 22 270 41.8 49.9 0.00 0.20 0.00 47 1036.6
20260905100938 22 270 27.4 38.6 0.00 0.20 0.00 48 1059.5
20260905100437 22 247 32.2 37.0 0.00 0.20 0.00 50 1036.6
20260905095937 22 337 16.1 37.0 0.00 0.20 0.00 48 1051.6
20260905095437 22 270 30.6 51.5 0.00 0.20 0.00 50 1077.1
20260905095136 22 270 8.0 40.2 0.00 0.20 0.00 50 1053.2
20260905094937 22 270 16.1 46.7 0.00 0.20 0.00 50 1048.5
20260905094437 21 247 9.7 33.8 0.00 0.20 0.00 52 1068.9
20260905093937 21 270 14.5 40.2 0.00 0.20 0.00 51 1056.4
20260905093437 21 270 17.7 53.1 0.00 0.20 0.00 51 1075.2
20260905092937 21 270 38.6 70.8 0.00 0.20 0.00 51 1068.6
20260905092437 21 247 16.1 51.5 0.00 0.20 0.00 51 1080.0
20260905091937 22 270 12.9 40.2 0.00 0.20 0.00 52 1056.4
20260905091836 21 270 27.4 43.5 0.00 0.20 0.00 53 1043.8
20260905091437 21 225 14.5 43.5 0.00 0.20 0.00 54 1053.2
20260905090937 21 337 11.3 33.8 0.00 0.20 0.00 54 1056.4
20260905090437 20 292 9.7 33.8 0.00 0.20 0.00 56 1039.1
20260905085937 20 225 12.9 38.6 0.00 0.20 0.00 56 1081.5
20260905085437 20 270 22.5 46.7 0.00 0.20 0.00 55 1065.9
20260905084937 20 292 20.9 41.8 0.00 0.20 0.00 55 1073.7
20260905084536 21 225 19.3 54.7 0.00 0.20 0.00 54 1050.1
20260905084437 21 292 41.8 54.7 0.00 0.20 0.00 53 1046.9
20260905083937 22 202 20.9 33.8 0.00 0.20 0.00 55 1073.7
20260905083437 22 247 19.3 33.8 0.00 0.20 0.00 55 1086.3
20260905082937 21 247 27.4 38.6 0.00 0.20 0.00 56 1065.8
20260905082437 21 270 22.5 43.5 0.00 0.20 0.00 56 1078.4
20260905081937 21 202 25.7 43.5 0.00 0.20 0.00 55 1069.0
20260905081236 22 247 22.5 33.8 0.00 0.20 0.00 56 1046.9
20260905080937 22 157 27.4 37.0 0.00 0.20 0.00 56 1046.9
20260905080437 22 270 16.1 32.2 0.00 0.20 0.00 56 1048.0
20260905075937 21 247 27.4 35.4 0.00 0.20 0.00 59 1067.4
20260905075437 20 270 27.4 30.6 0.00 0.20 0.00 63 1070.5
20260905074937 20 270 27.4 37.0 0.00 0.20 0.00 64 1072.1
20260905074437 19 292 20.9 32.2 0.00 0.20 0.00 63 1046.6
20260905073936 20 202 14.5 38.6 0.00 0.20 0.00 63 1053.2
20260905073437 20 270 27.4 46.7 0.00 0.20 0.00 63 1044.2
20260905072937 19 247 9.7 37.0 0.00 0.20 0.00 64 1039.0
20260905072437 19 247 11.3 30.6 0.00 0.20 0.00 66 1085.0
20260905071937 18 270 38.6 38.6 0.00 0.20 0.00 66 1063.8
20260905071437 18 270 22.5 53.1 0.00 0.20 0.00 67 1040.6
20260905070937 18 270 53.1 53.1 0.00 0.20 0.00 66 1046.9
20260905070636 18 270 25.7 35.4 0.00 0.20 0.00 65 1050.1
20260905070437 18 270 19.3 30.6 0.00 0.20 0.00 65 1007.4
20260905065937 19 315 27.4 35.4 0.00 0.20 0.00 64 1029.3
20260905065438 19 247 16.1 33.8 0.00 0.20 0.00 63 1053.2
20260905064937 19 270 19.3 27.4 0.00 0.20 0.00 64 1066.1
20260905064437 20 247 12.9 24.1 0.00 0.20 0.00 64 1081.5
20260905063937 20 270 22.5 33.8 0.00 0.20 0.00 63 1044.3
20260905063437 20 270 33.8 35.4 0.00 0.20 0.00 63 1046.9
20260905063336 20 292 16.1 35.4 0.00 0.20 0.00 62 1050.1
20260905062937 20 225 20.9 38.6 0.00 0.20 0.00 62 1051.7
20260905062437 20 315 11.3 37.0 0.00 0.20 0.00 62 1078.4
20260905061937 20 225 16.1 32.2 0.00 0.20 0.00 62 1080.1
20260905061437 20 270 17.7 37.0 0.00 0.20 0.00 63 1070.5
20260905060937 20 270 12.9 37.0 0.00 0.20 0.00 64 1053.9
20260905060437 20 247 4.8 33.8 0.00 0.20 0.00 65 1060.3
20260905060036 20 270 29.0 29.0 0.00 0.20 0.00 69 1072.9
20260905055937 19 270 11.3 27.4 0.00 0.20 0.00 69 1013.0
20260905055437 18 247 30.6 33.8 0.00 0.20 0.00 69 1063.3
20260905054937 18 292 12.9 30.6 0.00 0.20 0.00 71 1075.1
20260905054437 17 292 11.3 30.6 0.00 0.20 0.00 73 1040.6
20260905053937 17 270 14.5 35.4 0.00 0.20 0.00 74 1070.6
20260905053438 17 202 12.9 27.4 0.00 0.20 0.00 73 1061.6
20260905052937 17 270 8.0 30.6 0.00 0.20 0.00 74 1059.5
20260905052736 17 292 12.9 27.4 0.00 0.20 0.00 74 1040.6
20260905052437 17 270 12.9 33.8 0.00 0.20 0.00 74 1070.6
20260905051937 17 270 30.6 30.6 0.00 0.20 0.00 74 1069.2
20260905051437 17 270 25.7 29.0 0.00 0.20 0.00 76 1067.4
20260905050937 17 247 22.5 22.5 0.00 0.20 0.00 78 1080.8
20260905050437 16 247 8.0 22.5 0.00 0.20 0.00 80 1057.4
20260905045937 16 292 12.9 22.5 0.00 0.20 0.00 79 1038.7
20260905045437 16 292 16.1 30.6 0.00 0.20 0.00 79 1056.4
20260905044938 15 270 22.5 37.0 0.00 0.20 0.00 81 1094.1
20260905044438 15 247 11.3 38.6 0.00 0.20 0.00 82 1059.5
20260905043937 15 247 32.2 32.2 0.00 0.20 0.00 84 1054.8
20260905043437 15 270 27.4 32.2 0.00 0.20 0.00 84 1046.9
20260905042937 15 292 11.3 33.8 0.00 0.20 0.00 85 1027.2
20260905042437 15 225 25.7 40.2 0.00 0.20 0.00 85 1050.1
20260905042136 15 270 12.9 53.1 0.00 0.20 0.00 86 1070.0
20260905041937 15 247 17.7 53.1 0.00 0.20 0.00 86 1065.4
20260905041437 15 270 32.2 35.4 0.00 0.20 0.00 87 1044.1
20260905040937 15 270 35.4 46.7 0.00 0.20 0.00 87 998.8
20260905040438 15 225 16.1 43.5 0.00 0.20 0.00 88 1028.0
20260905035938 14 270 24.1 35.4 0.05 0.20 0.00 88 1021.6
20260905035438 14 270 19.3 33.8 0.05 0.20 0.00 88 1047.3
20260905034938 14 292 25.7 32.2 0.05 0.20 0.00 88 1034.3
20260905034837 14 292 22.5 32.2 0.05 0.20 0.00 89 1043.8
20260905034438 14 180 6.4 37.0 0.05 0.20 0.00 88 1051.2
20260905033938 14 270 32.2 32.2 0.05 0.20 0.00 88 1031.2
20260905033438 14 292 12.9 30.6 0.05 0.20 0.00 87 1062.7
20260905032938 14 292 8.0 27.4 0.05 0.20 0.00 87 1018.5
20260905032549 15 270 19.3 24.1 0.05 0.20 0.00 85 1021.7
20260905032438 15 270 19.3 24.1 0.05 0.20 0.00 85 1021.7
20260905031938 15 270 20.9 46.7 0.05 0.20 0.00 84 1034.3
20260905031537 15 292 16.1 48.3 0.05 0.20 0.00 83 1009.0
20260905031438 16 270 30.6 48.3 0.05 0.20 0.00 82 999.5
20260905031132 17 270 46.7 46.7 0.05 0.20 0.00 82 1031.2
20260905030938 17 270 46.7 46.7 0.05 0.20 0.00 82 1031.2
20260905030438 17 247 30.6 30.6 0.00 0.15 0.00 82 1040.6
20260905025938 17 270 16.1 30.6 0.00 0.15 0.00 81 1031.2
20260905025438 17 270 30.6 30.6 0.00 0.15 0.00 81 1024.8
20260905024938 17 202 12.9 33.8 0.00 0.15 0.00 81 1040.6
20260905024438 17 225 25.7 25.7 0.00 0.15 0.00 81 1021.7
20260905024237 17 157 12.9 27.4 0.00 0.15 0.00 80 1040.6
20260905023938 17 270 12.9 27.4 0.00 0.15 0.00 80 1043.8
20260905023438 17 225 16.1 37.0 0.00 0.15 0.00 81 1024.8
20260905022938 17 247 12.9 32.2 0.00 0.15 0.00 81 1018.5
20260905022438 17 225 14.5 29.0 0.00 0.15 0.00 81 1012.2
20260905021938 17 202 9.7 38.6 0.00 0.15 0.00 81 1031.2
20260905021438 17 270 19.3 24.1 0.00 0.15 0.00 81 1031.2
20260905020937 17 202 20.9 33.8 0.00 0.15 0.00 81 1028.0
20260905020438 17 225 3.2 22.5 0.00 0.15 0.00 81 1037.5
20260905015938 17 225 17.7 22.5 0.00 0.15 0.00 81 1043.8
20260905015438 17 202 9.7 24.1 0.00 0.15 0.00 81 1015.4
20260905014938 17 225 20.9 27.4 0.00 0.15 0.00 81 1028.0
20260905014438 17 270 9.7 33.8 0.00 0.15 0.00 81 1015.4
20260905013938 18 225 24.1 33.8 0.00 0.15 0.00 81 1034.3
20260905013637 18 270 19.3 32.2 0.00 0.15 0.00 81 1034.3
20260905013438 18 225 16.1 30.6 0.00 0.15 0.00 81 1024.9
20260905012938 18 225 16.1 35.4 0.00 0.15 0.00 81 1009.0
20260905012438 18 292 14.5 32.2 0.00 0.15 0.00 82 1040.6
20260905011938 18 247 16.1 38.6 0.00 0.15 0.00 82 1012.2
20260905011438 18 225 6.4 30.6 0.00 0.15 0.00 82 1031.1
20260905010938 18 292 11.3 33.8 0.00 0.15 0.00 83 1021.7
20260905010438 18 270 25.7 30.6 0.00 0.15 0.00 84 1053.2
20260905010337 18 292 16.1 30.6 0.00 0.15 0.00 84 1040.7
20260905005938 18 225 27.4 30.6 0.00 0.15 0.00 84 1031.2
20260905005438 18 202 24.1 33.8 0.00 0.15 0.00 84 1050.1
20260905004938 18 247 24.1 29.0 0.00 0.15 0.00 84 1040.6
20260905004438 18 225 19.3 25.7 0.00 0.15 0.00 85 1043.8
20260905003938 18 270 12.9 29.0 0.00 0.15 0.00 85 1058.6
20260905003438 18 225 12.9 27.4 0.00 0.15 0.00 85 1040.6
20260905003037 18 247 17.7 30.6 0.00 0.15 0.00 86 1003.1
20260905002938 18 225 30.6 30.6 0.00 0.15 0.00 86 1034.3
20260905002438 18 225 9.7 33.8 0.00 0.15 0.00 86 1024.4
20260905001938 18 202 16.1 24.1 0.00 0.15 0.00 86 1059.4
20260905001438 18 202 9.7 32.2 0.00 0.15 0.00 86 1062.6
20260905000938 18 247 19.3 27.4 0.00 0.15 0.00 87 1069.7
20260905000439 18 180 14.5 30.6 0.00 0.15 0.00 87 1002.7
20260904235938 18 225 17.7 27.4 0.00 0.15 0.00 87 1053.1
20260904235737 18 270 14.5 30.6 0.00 0.15 0.00 87 1040.7
20260904235438 18 225 27.4 30.6 0.00 0.15 0.00 87 1048.7
20260904234938 18 247 12.9 24.1 0.00 0.15 0.00 87 1067.4
20260904234438 18 270 11.3 25.7 0.00 0.15 0.00 87 997.3
20260904233939 18 225 19.3 27.4 0.00 0.15 0.00 87 1038.1
20260904233438 18 270 17.7 24.1 0.00 0.15 0.00 87 1045.6
20260904232938 18 292 12.9 19.3 0.00 0.15 0.00 87 1050.2
20260904232437 17 247 9.7 24.1 0.00 0.15 0.00 87 1056.3
20260904231938 17 225 9.7 20.9 0.00 0.15 0.00 87 1013.5
20260904231438 17 247 14.5 22.5 0.00 0.15 0.00 87 1053.6
20260904230938 17 270 14.5 20.9 0.00 0.15 0.00 87 1040.7
20260904230438 17 247 6.4 17.7 0.00 0.15 0.00 87 1064.3
20260904225939 17 225 12.9 25.7 0.00 0.15 0.00 87 1070.5
20260904225438 17 225 12.9 27.4 0.00 0.15 0.00 86 1024.5
20260904225137 17 202 14.5 29.0 0.00 0.15 0.00 86 1043.5
20260904224938 17 247 14.5 29.0 0.00 0.15 0.00 86 1078.5
20260904224438 17 247 22.5 27.4 0.00 0.15 0.00 86 1076.1
20260904223938 17 247 6.4 22.5 0.00 0.15 0.00 86 1083.1
20260904223438 17 202 16.1 22.5 0.00 0.15 0.00 86 1053.2
20260904222938 17 202 14.5 25.7 0.00 0.15 0.00 85 1041.4
20260904222438 17 225 4.8 19.3 0.00 0.15 0.00 85 1079.8
20260904221938 17 202 8.0 19.3 0.00 0.15 0.00 85 1013.0
20260904221837 17 202 14.5 19.3 0.00 0.15 0.00 85 1059.3
20260904221438 17 270 12.9 25.7 0.00 0.15 0.00 85 1024.0
20260904220938 17 270 11.3 24.1 0.00 0.15 0.00 85 1060.8
20260904220438 17 225 12.9 16.1 0.00 0.15 0.00 85 1045.3
20260904215938 17 270 8.0 25.7 0.00 0.20 0.00 85 1070.9
20260904215438 17 225 9.7 19.3 0.00 0.20 0.00 85 1070.8
20260904214938 17 225 19.3 22.5 0.00 0.20 0.00 84 1066.1
20260904214537 17 202 17.7 17.7 0.00 0.20 0.00 84 1051.7
20260904214438 17 270 9.7 16.1 0.00 0.20 0.00 84 1050.2
20260904213938 17 270 6.4 22.5 0.00 0.20 0.00 85 1041.0
20260904213438 17 180 9.7 22.5 0.00 0.20 0.00 85 1051.4
20260904212938 17 247 16.1 27.4 0.00 0.20 0.00 85 1061.0
20260904212438 17 270 12.9 27.4 0.00 0.20 0.00 85 1085.9
20260904211938 18 270 14.5 30.6 0.00 0.20 0.00 85 1064.5
20260904211438 18 225 12.9 32.2 0.00 0.20 0.00 84 1057.9
20260904211237 18 247 9.7 32.2 0.00 0.20 0.00 84 1057.6
20260904210938 18 247 12.9 27.4 0.05 0.20 0.00 84 1055.4
20260904210438 18 270 19.3 25.7 0.05 0.20 0.00 84 1062.7
20260904205938 18 270 20.9 27.4 0.05 0.20 0.00 84 1075.3
20260904205438 18 270 22.5 24.1 0.05 0.20 0.00 84 1080.0
20260904204938 18 225 19.3 25.7 0.05 0.20 0.00 84 1046.9
20260904204438 18 202 9.7 30.6 0.05 0.20 0.00 84 1036.6
20260904203937 18 292 24.1 27.4 0.10 0.20 0.00 84 1060.6
20260904203438 18 225 12.9 29.0 0.10 0.20 0.00 84 1030.3
20260904202938 18 247 27.4 27.4 0.10 0.20 0.00 84 1057.9
20260904202438 18 247 16.1 30.6 0.15 0.20 0.00 84 1052.5
20260904201938 18 270 14.5 37.0 0.15 0.20 0.00 84 1075.7
20260904201439 18 247 17.7 27.4 0.15 0.20 0.00 84 1067.4
20260904200938 18 270 29.0 29.0 0.10 0.15 0.00 84 1072.1
20260904200637 18 247 22.5 33.8 0.10 0.15 0.00 84 1022.1
20260904200438 18 225 20.9 33.8 0.10 0.15 0.00 84 1098.4
20260904195938 19 225 22.5 29.0 0.10 0.15 0.00 82 1053.2
20260904195438 19 247 24.1 24.1 0.10 0.15 0.00 81 1072.2
20260904194938 20 247 12.9 22.5 0.10 0.15 0.00 79 1058.3
20260904194438 20 270 11.3 25.7 0.10 0.15 0.00 77 1064.2
20260904193938 21 270 9.7 25.7 0.05 0.10 0.00 74 1055.9
20260904193438 21 202 8.0 22.5 0.05 0.10 0.00 72 1066.8
20260904193337 21 180 12.9 22.5 0.05 0.10 0.00 72 1060.7
20260904192938 21 202 12.9 27.4 0.00 0.05 0.00 71 1054.8
20260904192438 22 202 17.7 32.2 0.00 0.05 0.00 69 1056.0
20260904191938 22 247 29.0 29.0 0.00 0.05 0.00 68 1061.1
20260904191438 22 225 24.1 32.2 0.00 0.05 0.00 67 1099.9
20260904190938 22 202 27.4 41.8 0.00 0.05 0.00 67 1080.0
20260904190438 22 225 17.7 41.8 0.00 0.05 0.00 67 1073.7
20260904190038 22 225 20.9 41.8 0.00 0.05 0.00 67 1051.6
20260904185938 22 247 41.8 41.8 0.00 0.05 0.00 67 1071.0
20260904185438 22 180 8.0 30.6 0.00 0.05 0.00 67 1070.5
20260904184939 22 225 22.5 27.4 0.00 0.05 0.00 67 1062.7
20260904184438 22 202 19.3 29.0 0.00 0.05 0.00 68 1061.6
20260904183939 22 225 30.6 30.6 0.00 0.05 0.00 68 1061.0
20260904183438 21 202 24.1 30.6 0.00 0.05 0.00 68 1049.9
20260904182939 21 202 12.9 22.5 0.00 0.05 0.00 68 1018.3
20260904182738 21 225 14.5 22.5 0.00 0.05 0.00 68 1024.5
20260904182439 21 180 8.0 24.1 0.00 0.05 0.00 68 1040.6
20260904181939 21 225 9.7 19.3 0.00 0.05 0.00 68 1022.7
20260904181439 21 180 19.3 20.9 0.00 0.05 0.00 68 1053.2
20260904180939 21 202 12.9 20.9 0.00 0.05 0.00 68 1056.5
20260904180439 21 180 9.7 20.9 0.00 0.05 0.00 68 1053.1
20260904175939 21 180 8.0 29.0 0.00 0.05 0.00 68 1059.5
20260904175438 21 202 17.7 20.9 0.00 0.05 0.00 68 1053.6
20260904174939 21 202 3.2 24.1 0.00 0.05 0.00 68 1042.5
20260904174439 21 202 14.5 25.7 0.00 0.05 0.00 68 1055.7
20260904173939 21 157 16.1 22.5 0.00 0.05 0.00 67 1046.9
20260904173439 21 225 8.0 20.9 0.00 0.05 0.00 67 1031.2
20260904172939 21 180 12.9 24.1 0.00 0.05 0.00 67 1063.8
20260904172439 21 157 6.4 27.4 0.00 0.05 0.00 66 1064.5
20260904172138 21 180 24.1 27.4 0.00 0.05 0.00 66 1045.4
20260904171939 21 180 19.3 27.4 0.00 0.05 0.00 66 1049.8
20260904171439 22 202 14.5 30.6 0.00 0.05 0.00 65 1060.0
20260904170939 22 135 14.5 25.7 0.00 0.05 0.00 65 1039.0
20260904170439 22 202 16.1 27.4 0.00 0.05 0.00 65 1048.8
20260904165939 22 180 16.1 24.1 0.00 0.05 0.00 64 1049.9
20260904165439 22 202 3.2 27.4 0.00 0.05 0.00 64 1037.3
20260904164939 22 180 19.3 29.0 0.00 0.05 0.00 64 1042.7
20260904164838 22 180 8.0 29.0 0.00 0.05 0.00 63 1008.0
20260904164439 22 225 16.1 29.0 0.00 0.05 0.00 63 1059.5
20260904163939 22 180 24.1 27.4 0.00 0.05 0.00 63 1096.8
20260904163439 22 202 16.1 27.4 0.00 0.05 0.00 63 1047.7
20260904162939 22 202 24.1 30.6 0.00 0.05 0.00 62 1065.5
20260904162439 22 225 12.9 27.4 0.00 0.05 0.00 62 1048.5
20260904161939 22 225 16.1 29.0 0.00 0.05 0.00 61 1053.2
20260904161538 22 202 11.3 27.4 0.00 0.05 0.00 60 1042.2
20260904161439 22 202 25.7 27.4 0.00 0.05 0.00 60 1031.2
20260904160939 23 202 27.4 29.0 0.00 0.05 0.00 60 1055.1
20260904160439 23 202 8.0 17.7 0.00 0.05 0.00 59 1018.4
20260904155939 23 157 6.4 30.6 0.00 0.05 0.00 59 1072.4
20260904155439 23 202 14.5 27.4 0.00 0.05 0.00 58 994.1
20260904154939 23 247 19.3 24.1 0.00 0.05 0.00 58 1061.8
20260904154439 23 22 4.8 30.6 0.00 0.05 0.00 58 1030.0
20260904154238 23 180 12.9 30.6 0.00 0.05 0.00 57 1066.0
20260904153939 23 180 14.5 27.4 0.00 0.05 0.00 57 1065.8
20260904153439 23 202 17.7 17.7 0.00 0.05 0.00 57 1036.6
20260904152939 23 180 8.0 19.3 0.00 0.05 0.00 56 1059.5
20260904152439 23 247 16.1 24.1 0.00 0.05 0.00 56 1057.2
20260904151939 23 202 19.3 25.7 0.00 0.05 0.00 55 1037.4
20260904151439 24 247 17.7 30.6 0.00 0.05 0.00 55 1070.0
20260904150938 24 247 8.0 24.1 0.00 0.05 0.00 54 1059.5
20260904150439 25 157 19.3 30.6 0.00 0.05 0.00 54 1033.5
20260904145939 25 225 11.3 22.5 0.00 0.05 0.00 53 1042.3
20260904145439 25 180 12.9 25.7 0.00 0.05 0.00 53 1073.6
20260904144939 25 225 20.9 20.9 0.00 0.05 0.00 54 1068.5
20260904144439 25 180 12.9 20.9 0.00 0.05 0.00 54 1054.4
20260904143940 25 202 11.3 19.3 0.00 0.05 0.00 54 1051.6
20260904143638 25 225 12.9 24.1 0.00 0.05 0.00 54 1062.4
20260904143439 25 157 19.3 29.0 0.00 0.05 0.00 54 1028.5
20260904142939 25 202 12.9 24.1 0.00 0.05 0.00 54 1046.9
20260904142439 25 202 20.9 25.7 0.00 0.05 0.00 54 1053.2
20260904141939 25 247 6.4 27.4 0.00 0.05 0.00 53 1059.6
20260904141439 25 225 17.7 30.6 0.00 0.05 0.00 53 1075.1
20260904140939 25 225 19.3 20.9 0.00 0.05 0.00 54 1040.2
20260904140439 25 247 11.3 22.5 0.00 0.05 0.00 54 1058.0
20260904140338 25 202 6.4 22.5 0.00 0.05 0.00 54 1065.7
20260904135439 25 157 19.3 22.5 0.00 0.05 0.00 54 1065.9
20260904134939 25 202 14.5 24.1 0.00 0.05 0.00 53 1053.3
20260904134439 25 225 11.3 27.4 0.00 0.05 0.00 53 1041.2
20260904133939 25 202 16.1 27.4 0.00 0.05 0.00 53 1046.9
20260904133439 25 202 19.3 24.1 0.00 0.05 0.00 52 1031.1
20260904133038 25 225 12.9 24.1 0.00 0.05 0.00 52 1034.3
20260904132939 25 202 12.9 24.1 0.00 0.05 0.00 52 1010.3
20260904132439 25 292 25.7 25.7 0.00 0.05 0.00 52 1055.4
20260904131939 25 247 9.7 29.0 0.00 0.05 0.00 52 1034.3
20260904131439 26 180 19.3 22.5 0.00 0.05 0.00 51 1055.7
20260904130939 25 202 8.0 24.1 0.00 0.05 0.00 52 1035.2
20260904130439 25 225 17.7 20.9 0.00 0.05 0.00 52 1020.0
20260904125939 25 180 11.3 29.0 0.00 0.05 0.00 52 1040.6
20260904125738 25 180 8.0 29.0 0.00 0.05 0.00 52 1028.9
20260904125439 25 225 6.4 24.1 0.00 0.05 0.00 51 1055.4
20260904124939 25 180 16.1 22.5 0.00 0.05 0.00 51 1044.3
20260904124440 25 247 14.5 22.5 0.00 0.05 0.00 51 1044.9
20260904123939 25 292 4.8 27.4 0.00 0.05 0.00 51 1049.4
20260904123439 25 270 22.5 24.1 0.00 0.05 0.00 51 1050.1
20260904122939 25 225 11.3 30.6 0.00 0.05 0.00 51 1035.4
20260904122438 25 270 16.1 29.0 0.00 0.05 0.00 51 1035.4
20260904121939 25 247 33.8 35.4 0.00 0.05 0.00 50 1040.6
20260904121440 25 225 24.1 30.6 0.00 0.05 0.00 51 1059.3
20260904120939 25 157 6.4 25.7 0.00 0.05 0.00 51 1044.7
20260904120439 25 270 20.9 30.6 0.00 0.05 0.00 50 1030.9
20260904115939 25 270 17.7 29.0 0.00 0.05 0.00 50 1024.8
20260904115439 25 292 14.5 25.7 0.00 0.05 0.00 51 1031.2
20260904115138 25 247 12.9 27.4 0.00 0.05 0.00 51 1059.3
20260904114939 25 202 19.3 27.4 0.00 0.05 0.00 51 1045.5
20260904114439 25 202 16.1 27.4 0.00 0.05 0.00 51 1037.5
20260904113939 25 247 27.4 32.2 0.00 0.05 0.00 51 1034.3
20260904113439 25 225 22.5 30.6 0.00 0.05 0.00 51 1040.6
20260904112939 25 225 30.6 35.4 0.00 0.05 0.00 51 1021.1
20260904112439 25 225 32.2 32.2 0.00 0.05 0.00 50 1043.7
20260904111939 26 270 22.5 27.4 0.00 0.05 0.00 50 1047.3
20260904111838 26 270 11.3 27.4 0.00 0.05 0.00 50 1020.1
20260904111439 26 270 12.9 30.6 0.00 0.05 0.00 51 1052.8
20260904110939 26 247 25.7 33.8 0.00 0.05 0.00 52 1064.3
20260904110439 25 270 6.4 30.6 0.00 0.05 0.00 53 1040.3
20260904105939 25 247 16.1 40.2 0.00 0.05 0.00 53 1034.3
20260904105439 25 247 22.5 35.4 0.00 0.05 0.00 53 1046.9
20260904104939 25 270 22.5 29.0 0.00 0.05 0.00 55 1034.1
20260904104538 25 180 12.9 29.0 0.00 0.05 0.00 55 1040.7
20260904104439 25 202 22.5 29.0 0.00 0.05 0.00 55 1052.3
20260904103939 25 247 11.3 32.2 0.00 0.05 0.00 54 1054.2
20260904103439 25 247 24.1 30.6 0.00 0.05 0.00 54 1040.6
20260904102939 25 202 19.3 37.0 0.00 0.05 0.00 55 1046.5